Regional Weather Roundup
Issued by NWS

Home | Current Version | Previous Version | Graphics & Text | Print | Product List | Glossary On
Versions: 1 2 3 4 5 6 7 8 9 10 11 12 13 14 15 16 17 18 19 20 21 22 23 24 25 26 27 28 29 30 31 32 33 34 35 36 37 38 39 40 41 42 43 44 45 46 47 48 49 50
000
ASUS45 KCYS 290210
RWRWY

WYOMING REGIONAL WEATHER ROUNDUP
NATIONAL WEATHER SERVICE CHEYENNE WY
800 PM MDT WED SEP 28 2016

NOTE:  "FAIR" INDICATES FEW OR NO CLOUDS BELOW 12,000 FEET
WITH NO SIGNIFICANT WEATHER AND/OR OBSTRUCTIONS TO VISIBILITY.

WYZ001-290300-
YELLOWSTONE NATIONAL PARK

CITY           SKY/WX    TMP DP  RH WIND       PRES   REMARKS
LK YELLOWSTONE   N/A     47  36  65 NW3       30.38S
W YELLOWSTONE  NOT AVBL

$$
WYZ002>013-054>058-071-098>099-290300-
NORTHERN WYOMING

CITY           SKY/WX    TMP DP  RH WIND       PRES   REMARKS
JACKSON        CLEAR     63  36  36 CALM      30.27R
CODY           FAIR      66  44  45 SE5       30.23R
GREYBULL       FAIR      70  44  39 S7        30.16R
WORLAND        FAIR      67  40  37 SE13      30.18S
SHERIDAN       FAIR      61  42  49 SE9       30.20S
BUFFALO        NOT AVBL
GILLETTE       FAIR      62  46  55 SE9       30.26S
HULETT         FAIR      64  46  52 E9        30.30S
NEWCASTLE      FAIR      66  41  39 SE10G17   30.31R

$$
WYZ014>020-022>026-101>103-290300-
CENTRAL WYOMING

CITY           SKY/WX    TMP DP  RH WIND       PRES   REMARKS
BIG PINEY      FAIR      62  30  29 SE7       30.33S
PINEDALE       FAIR      59  30  33 SE3       30.35S
DUBOIS         FAIR      54  37  54 S3        30.37S
LANDER         FAIR      62  40  44 W14       30.25R
RIVERTON       FAIR      65  38  36 E8        30.26S
CASPER         FAIR      63  35  35 E10       30.29R
DOUGLAS        FAIR      58  36  43 E8        30.31R

$$
WYZ021-027>030-104>119-290300-
SOUTHERN WYOMING

CITY           SKY/WX    TMP DP  RH WIND       PRES   REMARKS
EVANSTON       MOCLDY    65  32  29 NE5       30.30S
FORT BRIDGER   FAIR      65  32  28 NE9       30.33R
ROCK SPRINGS   FAIR      65  32  29 E10       30.31R
DIXON          FAIR      60  33  35 E5        30.32S
RAWLINS        FAIR      64  34  32 NE14      30.33S
SARATOGA       FAIR      59  32  36 SE8       30.35R
LARAMIE        FAIR      56  32  40 SE8       30.41R
CHEYENNE       FAIR      60  37  42 E9        30.38R
TORRINGTON     FAIR      62  38  40 E10       30.28R
PINE BLUFFS    FAIR      63  34  34 E9        30.35R

$$



USA.gov is the U.S. government's official web portal to all federal, state and local government web resources and services.